TimePDT,TemperatureF,Dew PointF,Humidity,Sea Level PressureIn,VisibilityMPH,Wind Direction,Wind SpeedMPH,Gust SpeedMPH,PrecipitationIn,Events,Conditions,WindDirDegrees,DateUTC
12:53 AM,48.9,41.0,74,30.06,10.0,WSW,6.9,-,N/A,,Clear,250,2013-09-19 07:53:00
1:53 AM,44.1,37.9,79,30.07,10.0,West,5.8,-,N/A,,Clear,270,2013-09-19 08:53:00
2:53 AM,43.0,37.9,82,30.07,10.0,West,8.1,-,N/A,,Clear,270,2013-09-19 09:53:00
3:53 AM,42.1,37.9,85,30.08,10.0,West,3.5,-,N/A,,Clear,260,2013-09-19 10:53:00
4:53 AM,41.0,36.0,82,30.08,10.0,WSW,4.6,-,N/A,,Clear,250,2013-09-19 11:53:00
5:53 AM,39.9,36.0,86,30.09,10.0,West,6.9,-,N/A,,Clear,270,2013-09-19 12:53:00
6:53 AM,37.9,35.1,89,30.10,10.0,West,4.6,-,N/A,,Clear,270,2013-09-19 13:53:00
7:53 AM,45.0,39.9,82,30.10,10.0,West,3.5,-,N/A,,Clear,280,2013-09-19 14:53:00
8:53 AM,54.0,41.0,62,30.09,10.0,West,5.8,-,N/A,,Clear,280,2013-09-19 15:53:00
9:53 AM,57.9,41.0,53,30.09,10.0,West,3.5,-,N/A,,Clear,270,2013-09-19 16:53:00
10:53 AM,63.0,42.1,46,30.07,10.0,Calm,Calm,-,N/A,,Clear,0,2013-09-19 17:53:00
11:53 AM,68.0,39.9,36,30.05,10.0,East,3.5,-,N/A,,Clear,80,2013-09-19 18:53:00
12:53 PM,70.0,41.0,35,30.03,10.0,Variable,3.5,-,N/A,,Clear,0,2013-09-19 19:53:00
1:53 PM,73.0,42.1,33,30.00,10.0,East,3.5,-,N/A,,Clear,80,2013-09-19 20:53:00
2:53 PM,73.9,41.0,30,29.97,10.0,East,8.1,-,N/A,,Clear,80,2013-09-19 21:53:00
3:53 PM,75.9,42.1,30,29.95,10.0,Calm,Calm,-,N/A,,Clear,0,2013-09-19 22:53:00
4:53 PM,75.9,42.1,30,29.92,10.0,Calm,Calm,-,N/A,,Clear,0,2013-09-19 23:53:00
5:53 PM,75.0,39.0,27,29.91,10.0,Calm,Calm,-,N/A,,Clear,0,2013-09-20 00:53:00
6:53 PM,68.0,48.0,49,29.90,10.0,Calm,Calm,-,N/A,,Clear,0,2013-09-20 01:53:00
7:53 PM,61.0,45.0,56,29.90,10.0,SSW,5.8,-,N/A,,Clear,200,2013-09-20 02:53:00
8:53 PM,57.9,43.0,58,29.91,10.0,WSW,4.6,-,N/A,,Clear,250,2013-09-20 03:53:00
9:53 PM,57.0,42.1,57,29.89,10.0,WSW,8.1,-,N/A,,Clear,250,2013-09-20 04:53:00
10:53 PM,52.0,42.1,69,29.89,10.0,West,8.1,-,N/A,,Clear,280,2013-09-20 05:53:00
11:53 PM,50.0,41.0,71,29.87,10.0,West,6.9,-,N/A,,Clear,270,2013-09-20 06:53:00